VVY YSSY-YSBK

Flight info

Callsign VVY
Flight time 0h -9m
Altitude 1500
Route YSSY/25 RKWC RSH BK
Aircraft R66/L-SFG/C

Departure

Time 2026-05-07 06:24
Airport Sydney Kingsford Smith International Airport (YSSY)

Arrival

Time 2026-05-07 06:15
Airport Sydney Bankstown Airport (YSBK)
Time Latitude Longitude Altitude Speed Heading
2026-05-07 06:15 -33.93966 151.19160 23 ft 0 kts 163°
2026-05-07 06:21 -33.93965 151.19167 26 ft 0 kts 234°
2026-05-07 06:21 -33.93964 151.19169 40 ft 1 kts 273°
2026-05-07 06:22 -33.93967 151.19166 102 ft 3 kts 274°
2026-05-07 06:22 -33.93954 151.19192 208 ft 3 kts 276°
2026-05-07 06:22 -33.93971 151.19138 242 ft 12 kts 270°
2026-05-07 06:23 -33.93996 151.18976 292 ft 27 kts 259°
2026-05-07 06:23 -33.94054 151.18701 357 ft 38 kts 256°
2026-05-07 06:23 -33.94132 151.18363 405 ft 43 kts 256°
2026-05-07 06:23 -33.94190 151.18006 492 ft 45 kts 257°
2026-05-07 06:24 -33.94265 151.17630 590 ft 47 kts 251°
2026-05-07 06:24 -33.94342 151.17243 743 ft 49 kts 256°
2026-05-07 06:24 -33.94402 151.16831 873 ft 51 kts 251°
2026-05-07 06:24 -33.94460 151.16391 979 ft 57 kts 269°
2026-05-07 06:25 -33.94203 151.15936 1006 ft 82 kts 309°
2026-05-07 06:25 -33.93678 151.15588 1013 ft 83 kts 306°
2026-05-07 06:25 -33.93260 151.15127 1010 ft 81 kts 300°
2026-05-07 06:25 -33.92893 151.14635 1003 ft 77 kts 294°
2026-05-07 06:26 -33.92577 151.14132 1007 ft 76 kts 291°
2026-05-07 06:26 -33.92271 151.13631 991 ft 68 kts 289°
2026-05-07 06:26 -33.92001 151.13200 1012 ft 65 kts 290°
2026-05-07 06:26 -33.91737 151.12767 1004 ft 62 kts 290°
2026-05-07 06:27 -33.91482 151.12343 1008 ft 63 kts 291°
2026-05-07 06:27 -33.91218 151.11890 1014 ft 70 kts 291°
2026-05-07 06:27 -33.90930 151.11367 1008 ft 78 kts 291°
2026-05-07 06:27 -33.90626 151.10810 1007 ft 81 kts 292°
2026-05-07 06:28 -33.90308 151.10240 1007 ft 83 kts 294°
2026-05-07 06:28 -33.89977 151.09660 1006 ft 85 kts 293°
2026-05-07 06:28 -33.89636 151.09073 1005 ft 86 kts 294°
2026-05-07 06:28 -33.89285 151.08476 1008 ft 89 kts 293°
2026-05-07 06:29 -33.88932 151.07870 1006 ft 88 kts 295°
2026-05-07 06:29 -33.88582 151.07276 1003 ft 86 kts 295°
2026-05-07 06:29 -33.88248 151.06711 1007 ft 80 kts 291°
2026-05-07 06:29 -33.87923 151.06166 1010 ft 80 kts 291°
2026-05-07 06:30 -33.87591 151.05623 1005 ft 84 kts 297°
2026-05-07 06:30 -33.87081 151.05187 1009 ft 95 kts 315°
2026-05-07 06:30 -33.86483 151.04823 1005 ft 97 kts 319°
2026-05-07 06:30 -33.85871 151.04484 1007 ft 98 kts 320°
2026-05-07 06:31 -33.85243 151.04123 1006 ft 101 kts 317°
2026-05-07 06:31 -33.84622 151.03747 1010 ft 99 kts 316°
2026-05-07 06:31 -33.84009 151.03379 1011 ft 98 kts 317°
2026-05-07 06:31 -33.83407 151.03023 1006 ft 95 kts 315°
2026-05-07 06:32 -33.82813 151.02677 1008 ft 95 kts 318°
2026-05-07 06:32 -33.82218 151.02329 1008 ft 94 kts 317°
2026-05-07 06:32 -33.81629 151.01963 1009 ft 97 kts 317°
2026-05-07 06:32 -33.81139 151.01479 1012 ft 86 kts 287°
2026-05-07 06:33 -33.81130 151.00814 1011 ft 82 kts 245°
2026-05-07 06:33 -33.81564 151.00358 1007 ft 87 kts 216°
2026-05-07 06:33 -33.82128 151.00113 1007 ft 85 kts 206°
2026-05-07 06:33 -33.82690 150.99962 1007 ft 82 kts 205°
2026-05-07 06:34 -33.83250 150.99834 1015 ft 84 kts 204°
2026-05-07 06:34 -33.83844 150.99722 1011 ft 89 kts 200°
2026-05-07 06:34 -33.84465 150.99634 1007 ft 90 kts 198°
2026-05-07 06:34 -33.85085 150.99566 1009 ft 89 kts 197°
2026-05-07 06:35 -33.85704 150.99498 1009 ft 90 kts 199°
2026-05-07 06:35 -33.86320 150.99435 1009 ft 89 kts 199°
2026-05-07 06:35 -33.86948 150.99371 1007 ft 90 kts 197°
2026-05-07 06:35 -33.87575 150.99309 1011 ft 91 kts 195°
2026-05-07 06:36 -33.88194 150.99273 1005 ft 85 kts 193°
2026-05-07 06:36 -33.88763 150.99247 1008 ft 80 kts 198°
2026-05-07 06:36 -33.89297 150.99202 1007 ft 76 kts 198°
2026-05-07 06:36 -33.89830 150.99153 1007 ft 74 kts 195°
2026-05-07 06:37 -33.90268 150.99153 984 ft 53 kts 193°
2026-05-07 06:37 -33.90617 150.99207 886 ft 48 kts 194°
2026-05-07 06:37 -33.90936 150.99223 773 ft 47 kts 200°
2026-05-07 06:37 -33.91268 150.99209 640 ft 51 kts 203°
2026-05-07 06:38 -33.91618 150.99183 454 ft 53 kts 198°
2026-05-07 06:38 -33.91924 150.99222 261 ft 34 kts 213°
2026-05-07 06:38 -33.92056 150.99205 77 ft 11 kts 238°
2026-05-07 06:38 -33.92086 150.99224 27 ft 0 kts 267°
2026-05-07 06:39 -33.92095 150.99205 70 ft 3 kts 273°
2026-05-07 06:39 -33.92107 150.99186 27 ft 0 kts 264°